sat.trackr.live / text

‹ back to catalog

GSAT-7A

NORAD 43864 · 2018-105A

PAYLOAD ACTIVE UNKNOWN

§ Identity

Operator
Country
IND
Launch date
2018-12-19
Launch site
SRILR
Launch vehicle
Mass (kg)
RCS (m²)

Purposes: comms

External: N2YO · Heavens-Above · Gunter

§ Orbital elements

Epoch: 2026-09-19T00:09:49.457952Z

Period
1,436.07 min
Inclination
0.0377°
Eccentricity
0.0002155
Mean motion
1.00273330 rev/d
Perigee alt
35,777.1 km
Apogee alt
35,795.2 km
Semi-major
42,164.3 km
B*
0.0000e+0
RAAN
94.7077°
Arg perigee
84.6348°
Mean anomaly
243.8697°
Rev number
2,838

§ Raw data

GSAT-7A1 43864U 18105A   26262.00682243  .00000021  00000+0  00000+0 0  99942 43864   0.0377  94.7077 0002155  84.6348 243.8697  1.00273330 28383

JSON: /api/v1/satellites/43864 · /tle

For live sub-satellite position, see the globe view (requires WebGL).

§ Visibility from observer

Set your observer location to see the next 7 days of passes ≥ 10°. The values pass through the URL so the page stays shareable.

No JS? Fill the form by hand. The geolocation button needs JavaScript.